This is the latest recevied weather packets stored in our database for station/object IR4UCA. If no packets are shown the sender has not sent any weather packets the latest 10 day(s).
| Time | Temp. | Humidity | Pressure | Rain* | Wind** | Luminosity | Snow |
|---|---|---|---|---|---|---|---|
| 1777797587 | 20.56° C | 48% | 1018.8 hPa | 0 mm | - | - | - |
| 1777796984 | 20° C | 50% | 1018.9 hPa | 0 mm | - | - | - |
| 1777796383 | 20° C | 51% | 1018.9 hPa | 0 mm | - | - | - |
| 1777795784 | 19.44° C | 52% | 1019.1 hPa | 0 mm | - | - | - |
| 1777795187 | 18.89° C | 53% | 1019 hPa | 0 mm | - | - | - |
| 1777794587 | 18.33° C | 53% | 1019.1 hPa | 0 mm | - | - | - |
| 1777793984 | 17.78° C | 54% | 1019.2 hPa | 0 mm | - | - | - |
| 1777793384 | 17.22° C | 55% | 1019.3 hPa | 0 mm | - | - | - |
| 1777792188 | 16.11° C | 57% | 1019.4 hPa | 0 mm | - | - | - |
| 1777791585 | 16.11° C | 57% | 1019.3 hPa | 0 mm | - | - | - |
| 1777790984 | 15.56° C | 58% | 1019.4 hPa | 0 mm | - | - | - |
| 1777790384 | 15° C | 60% | 1019.3 hPa | 0 mm | - | - | - |
| 1777789783 | 15° C | 60% | 1019.4 hPa | 0 mm | - | - | - |
| 1777789184 | 14.44° C | 61% | 1019.4 hPa | 0 mm | - | - | - |
| 1777788584 | 14.44° C | 61% | 1019.4 hPa | 0 mm | - | - | - |
| 1777787987 | 14.44° C | 61% | 1019.2 hPa | 0 mm | - | - | - |
| 1777787385 | 13.89° C | 62% | 1019.2 hPa | 0 mm | - | - | - |
| 1777786784 | 13.33° C | 64% | 1019.1 hPa | 0 mm | - | - | - |
| 1777786183 | 12.78° C | 66% | 1019.1 hPa | 0 mm | - | - | - |
| 1777785587 | 13.33° C | 66% | 1019.2 hPa | 0 mm | - | - | - |
| 1777784983 | 12.78° C | 66% | 1019.1 hPa | 0 mm | - | - | - |
| 1777784383 | 12.78° C | 66% | 1019.2 hPa | 0 mm | - | - | - |
| 1777783784 | 12.78° C | 66% | 1019.1 hPa | 0 mm | - | - | - |
| 1777783183 | 12.78° C | 66% | 1019 hPa | 0 mm | - | - | - |
| 1777782587 | 13.33° C | 65% | 1019.1 hPa | 0 mm | - | - | - |
* Rain latest hour (hover to see other rain measurements)
** Current wind speed in m/s (hover to see current wind gust speed)